STARLINK-35183

Last updated on Sun Oct 19 2025 00:02:05 GMT+0000 (Coordinated Universal Time)

1 65646U 25210AA 25291.25003472 .00104274 00000+0 25898-2 0 9990 2 65646 53.1607 250.4886 0001418 96.4836 46.6974 15.39520306 6000

Satellite not in orbit

STARLINK-35183